Weather History for KPHF - October, 2012

Change the Weather History Date:

Friday, October 26, 2012

  Actual Average Record
Temperature  
Mean Temperature 68 °F -  
Max Temperature 71 °F 65 °F 79 °F (2010)
Min Temperature 64 °F 49 °F 33 °F (2013)
Cooling Degree Days 2    
Growing Degree Days 18 (Base 50)    
Moisture  
Dew Point 62 °F    
Average Humidity 83    
Maximum Humidity 88    
Minimum Humidity 73    
Precipitation  
Precipitation 0.01 in - - ()
Sea Level Pressure  
Sea Level Pressure 30.08 in    
Wind  
Wind Speed 7 mph (NE)    
Max Wind Speed 12 mph    
Max Gust Speed 17 mph    
Visibility 8 miles    
Events Rain    
Averages and records for this station are not official NWS values.
T = Trace of Precipitation, MM = Missing Value Source: NWS Daily Summary

Daily Weather History Graph

Daily Weather History Graph

Search for Another Location

Airport or City:

Trip Planner

Search our weather history database for the weather conditions in past years. The results will help you decide how hot, cold, wet, or windy it might be!

Date:

Astronomy

Oct. 26, 2012 Rise Set
Actual Time 7:24 AM EDT 6:14 PM EDT
Civil Twilight 6:58 AM EDT 6:41 PM EDT
Nautical Twilight 6:27 AM EDT 7:11 PM EDT
Astronomical Twilight 5:57 AM EDT 7:41 PM EDT
Moon 4:26 PM EDT (10/26) 4:22 AM EDT (10/26)
Length of Visible Light 11h 43m
Length of Day
10h 49m
Waxing Gibbous, 91% of the Moon is Illuminated
Oct 26
Waxing Gibbous
Oct 29
Full
Nov 6
Last Quarter
Nov 13
New
Nov 20
First Quarter

Hourly Weather History & Observations

Time (EDT) Temp. Dew Point Humidity Pressure Visibility Wind Dir Wind Speed Gust Speed Precip Events Conditions
12:54 AM 66.9 °F 62.1 °F 84% 30.14 in 6.0 mi East 6.9 mph - N/A   Haze
1:54 AM 66.9 °F 63.0 °F 87% 30.13 in 5.0 mi East 5.8 mph - N/A   Overcast
2:54 AM 68.0 °F 63.0 °F 84% 30.12 in 6.0 mi East 5.8 mph - N/A   Haze
3:54 AM 66.9 °F 63.0 °F 87% 30.11 in 6.0 mi ENE 5.8 mph - N/A   Overcast
4:54 AM 66.9 °F 62.1 °F 84% 30.11 in 6.0 mi NE 3.5 mph - N/A   Haze
5:54 AM 66.9 °F 62.1 °F 84% 30.11 in 6.0 mi NE 5.8 mph - N/A   Haze
6:54 AM 64.9 °F 61.0 °F 87% 30.11 in 6.0 mi NE 4.6 mph - N/A   Mostly Cloudy
7:09 AM 64.4 °F 60.8 °F 88% 30.11 in 6.0 mi NE 3.5 mph - N/A   Mostly Cloudy
7:21 AM 64.4 °F 60.8 °F 88% 30.11 in 5.0 mi NE 5.8 mph - N/A   Mostly Cloudy
7:54 AM 64.9 °F 61.0 °F 87% 30.12 in 5.0 mi NE 6.9 mph - N/A   Overcast
8:54 AM 66.2 °F 62.6 °F 88% 30.14 in 8.0 mi NE 5.8 mph - N/A   Overcast
9:54 AM 68.0 °F 62.1 °F 81% 30.15 in 10.0 mi NNE 6.9 mph - N/A   Overcast
10:54 AM 69.1 °F 61.0 °F 75% 30.14 in 10.0 mi NNE 9.2 mph - N/A   Overcast
11:01 AM 69.8 °F 62.6 °F 78% 30.14 in 10.0 mi NNE 10.4 mph 16.1 mph N/A   Overcast
11:10 AM 69.8 °F 60.8 °F 73% 30.14 in 10.0 mi NNE 10.4 mph 17.3 mph N/A   Overcast
11:54 AM 69.1 °F 61.0 °F 75% 30.13 in 10.0 mi NE 11.5 mph - N/A   Overcast
12:54 PM 71.1 °F 62.1 °F 73% 30.10 in 10.0 mi NNE 9.2 mph - N/A   Overcast
1:25 PM 69.8 °F 62.6 °F 78% 30.09 in 10.0 mi NE 5.8 mph - N/A   Mostly Cloudy
1:44 PM 71.6 °F 62.6 °F 73% 30.07 in 10.0 mi NNE 9.2 mph - N/A   Mostly Cloudy
1:54 PM 70.0 °F 62.1 °F 76% 30.07 in 10.0 mi North 9.2 mph - N/A   Mostly Cloudy
2:19 PM 69.8 °F 60.8 °F 73% 30.07 in 9.0 mi NNE 6.9 mph - N/A   Overcast
2:30 PM 68.0 °F 62.6 °F 83% 30.06 in 1.8 mi NE 5.8 mph - 0.00 in Rain Light Rain
2:44 PM 66.2 °F 62.6 °F 88% 30.06 in 2.0 mi NE 9.2 mph - 0.00 in Rain Light Rain
2:54 PM 66.9 °F 62.1 °F 84% 30.06 in 2.0 mi NE 11.5 mph - 0.01 in Rain Light Rain
3:01 PM 66.2 °F 62.6 °F 88% 30.05 in 1.8 mi NE 8.1 mph - 0.00 in Rain Light Rain
3:06 PM 66.2 °F 62.6 °F 88% 30.05 in 2.0 mi NE 8.1 mph - 0.00 in Rain Light Rain
3:15 PM 66.2 °F 62.6 °F 88% 30.05 in 5.0 mi NE 5.8 mph - N/A   Haze
3:54 PM 66.9 °F 63.0 °F 87% 30.04 in 8.0 mi NNE 6.9 mph - 0.00 in   Overcast
4:06 PM 66.2 °F 62.6 °F 88% 30.03 in 8.0 mi NNE 10.4 mph - N/A   Overcast
4:54 PM 66.9 °F 62.1 °F 84% 30.02 in 9.0 mi NE 5.8 mph - N/A   Overcast
5:02 PM 66.2 °F 62.6 °F 88% 30.02 in 9.0 mi NE 6.9 mph - N/A   Overcast
5:54 PM 66.9 °F 62.1 °F 84% 30.03 in 9.0 mi NNE 5.8 mph - N/A   Overcast
6:40 PM 66.2 °F 62.6 °F 88% 30.03 in 10.0 mi NNE 5.8 mph - N/A   Overcast
6:54 PM 66.9 °F 62.1 °F 84% 30.02 in 10.0 mi NE 8.1 mph - N/A   Overcast
7:54 PM 66.9 °F 62.1 °F 84% 30.02 in 10.0 mi NE 6.9 mph - N/A   Overcast
8:54 PM 66.9 °F 61.0 °F 81% 30.02 in 10.0 mi NE 6.9 mph - N/A   Overcast
9:54 PM 66.0 °F 61.0 °F 84% 30.01 in 10.0 mi NE 10.4 mph - 0.00 in   Mostly Cloudy
10:54 PM 66.0 °F 60.1 °F 81% 29.99 in 10.0 mi NE 8.1 mph - N/A   Mostly Cloudy
11:54 PM 64.9 °F 60.1 °F 84% 29.98 in 10.0 mi NE 8.1 mph - N/A   Partly Cloudy